Regional Weather Roundup
Issued by NWS

Home | Current Version | Previous Version | Graphics & Text | Print | Product List | Glossary On
Versions: 1 2 3 4 5 6 7 8 9 10 11 12 13 14 15 16 17 18 19 20 21 22 23 24 25 26 27
000
ASUS45 KBOU 200006
RWRCO

WEATHER ROUNDUP FOR COLORADO
NATIONAL WEATHER SERVICE DENVER/BOULDER CO
600 PM MDT SAT APR 19 2014

NOTE: "FAIR" INDICATES FEW OR NO CLOUDS BELOW 12000 FEET WITH NO
SIGNIFICANT WEATHER AND/OR OBSTRUCTIONS TO VISIBILITY.

COZ001>005-013-030-031-200100-
...NORTHWEST COLORADO...

CITY           SKY/WX    TMP DP  RH WIND       PRES   REMARKS
CRAIG          PTSUNNY   59  38  45 E5        30.06S
HAYDEN         PTSUNNY   54  39  58 SE5       30.11F
MEEKER         MOSUNNY   60  37  42 CALM      30.05S
MOUNT WERNER   PTSUNNY   39  32  75 NW10      30.25F
STEAMBOAT SPGS PTSUNNY   52  36  53 N6        30.10S
WALDEN         PTSUNNY   54  28  37 W9G17     30.13R
$$

COZ006>008-011-200100-
...WEST CENTRAL VALLEYS...

CITY           SKY/WX    TMP DP  RH WIND       PRES   REMARKS
GRAND JUNCTION MOSUNNY   63  42  46 W7        30.03R
MONTROSE       PTSUNNY   62  39  42 N7        30.07R
EAGLE          PTSUNNY   61  34  36 SW8       30.07R
RIFLE          CLOUDY    63  36  36 W14       30.03R
DELTA          CLOUDY    64  40  41 NW8       30.04R
NUCLA            N/A     61  39  44 CALM      30.10S
$$

COZ017>023-064>068-200100-
...SOUTHWEST COLORADO...

CITY           SKY/WX    TMP DP  RH WIND       PRES   REMARKS
DURANGO        CLOUDY    61  28  28 W7        30.07S
CORTEZ         SUNNY     66  31  27 W9        30.05R
PAGOSA SPRINGS CLOUDY    57  31  37 W7        30.12S
TELLURIDE      NOT AVBL
WOLF CREEK PAS CLOUDY    34  28  80 SW16      30.28F WCI  23
$$

COZ009-010-012-014-032>034-037-058>063-200100-
...CENTRAL COLORADO...

CITY           SKY/WX    TMP DP  RH WIND       PRES   REMARKS
ASPEN          PTSUNNY   54  30  40 N12       30.09R
BUENA VISTA    CLOUDY    55  34  45 E14       30.12R
COPPER MTN     SNOW      36  32  87 W10       30.29R VSB 1/4
BERTHOUD PASS  HVY SNOW  28  19  69 E13       30.33R VSB<1/4 WCI  18
COTTONWOOD PAS CLOUDY    52  32  46 E6        30.21R
GUNNISON       PTSUNNY   57  30  35 SW10G18   30.12S
KREMMLING      LGT RAIN  50  39  66 W6        30.14R
LEADVILLE      PTSUNNY   44  29  55 NW6       30.18R
MONARCH PASS   CLOUDY    37  25  60 W8        30.39R
SALIDA         CLOUDY    59  35  40 NE7       30.17R
SUNLIGHT       CLOUDY    41  34  75 CALM      30.26R
WILKERSON PASS FLURRIES  34  32  93 CALM      30.31R
$$

COZ069>075-200100-
...SAN LUIS VALLEY/SANGRE DE CRISTO MOUNTAINS...

CITY           SKY/WX    TMP DP  RH WIND       PRES   REMARKS
ALAMOSA        CLOUDY    62  24  23 S8        30.04S
LA VETA PASS   CLOUDY    43  32  65 E12G20    30.21S
SAGUACHE       PTSUNNY   59  25  27 NW8       30.08S
$$

COZ035-036-038>040-200100-
...NORTHERN COLORADO FRONT RANGE...

CITY           SKY/WX    TMP DP  RH WIND       PRES   REMARKS
DENVER INTL AP LGT RAIN  57  45  64 W18       30.07R
DMNS CITY PARK   N/A     55  45  69 NW9G39    30.06R
AURORA         PTSUNNY   57  45  62 NW10      30.07R
FRONT RANGE AP NOT AVBL
ERIE MUNI ARPT LGT RAIN  52  48  88 NW8       30.07F
BOULDER MUN AP LGT RAIN  50  46  87 W7        30.07F
CENTENNIAL     CLOUDY    57  42  57 NW10      30.07R
BROOMFIELD     PTSUNNY   52  46  82 NW17      30.08S
FORT COLLINS   CLOUDY    63  39  42 SE16      30.05R
LONGMONT       DRIZZLE   54  46  75 S17G24    30.08R
$$

COZ041-046-047-076>085-087-088-200100-
...PIKES PEAK/PALMER DIVIDE AND SOUTHERN FOOTHILLS...

CITY           SKY/WX    TMP DP  RH WIND       PRES   REMARKS
COLO. SPRINGS  CLOUDY    63  32  31 E15       30.05R
A. F. ACADEMY  CLOUDY    55  39  54 NE16G23   30.08R
ELLICOTT       NOT AVBL
FALCON         CLOUDY    58  31  36 E17       30.09S
FORT CARSON    CLOUDY    61  39  43 NW10      30.03R
LIMON          SUNNY     63  36  36 NE20      30.03R
MONUMENT HILL  CLOUDY    55  32  41 E13       30.10R
TRINIDAD       LGT RAIN  60  43  53 S20       30.03R
$$

COZ042>045-048>051-090-091-200100-
...NORTHEAST COLORADO...

CITY           SKY/WX    TMP DP  RH WIND       PRES   REMARKS
GREELEY ARPT   PTSUNNY   63  37  39 SE14      30.04R
AKRON          CLOUDY    62  37  39 E14       30.03R
BURLINGTON     PTSUNNY   68  43  40 NE16      29.98F
WRAY           CLOUDY    69  39  33 E12G24    30.01R
STERLING       CLOUDY    68  41  37 E9        30.01R
HOLYOKE        PTSUNNY   66  36  32 E9        30.01R
FORT MORGAN    CLOUDY    60  37  42 NE8       30.04R
$$

COZ086-089-092>099-200100-
...SOUTHEAST COLORADO...

CITY           SKY/WX    TMP DP  RH WIND       PRES   REMARKS
PUEBLO         PTSUNNY   72  36  26 E21       29.93S
LA JUNTA       CLOUDY    74  41  30 NE30G37   29.89S
LAMAR          CLOUDY    75  41  29 S21G31    29.86R
SPRINGFIELD      N/A     67  43  41 S22G29    29.95R
$$



USA.gov is the U.S. government's official web portal to all federal, state and local government web resources and services.